SCP
0 0 0 0 0 0 0 0 0 0 0 0 0 0 0 0 0 0 0 0 0 -0 -0 -0 0 0 0 -0 -0 -0 -0 -0 -0 -0 -0 -0 -0 -0 -0 -0 -0 -0 -0 -0 -0 -0 -0 -0 -0
0 0 0 0 0 0 0 0 0 0 0 0 0 0 0 0 0 0 0 0 0 0 0 0 0 0 0 0 -0 -0 -0 -0 -0 -0 -0 -0 -0 -0 -0 -0 -0 -0 -0 -0 -0 -0 -0 -0 0
0 0 0 0 0 0 0 0 0 0 0 0 0 0 0 0 0 0 0 0 0 0 0 0 0 0 0 0 -0 -0 -0 -0 -0 -0 -0 -0 -0 -0 -0 -0 -0 -0 -0 -0 -0 -0 0 0 0
0 0 0 0 0 0 0 0 0 0 0 0 0 0 0 0 1 0 0 0 0 0 -0 -1 -0 -0 -0 0 -0 0 -0 -0 -0 -0 -0 -0 -0 -0 -0 -0 -0 -0 -0 -0 0 0 0 0 0
0 0 0 0 0 0 0 0 0 0 0 0 0 0 0 0 0 0 0 0 0 0 0 0 -0 -0 -0 -0 -0 -0 0 -0 -0 -0 -0 -0 -0 -0 -0 -0 -0 -0 -0 0 0 0 0 0 0
0 0 0 0 0 0 0 0 0 0 0 0 0 0 0 1 -0 0 0 0 0 0 0 0 0 -0 0 -0 -0 -0 -0 -0 -0 -0 -0 -0 -0 -0 -0 -0 -0 0 0 0 0 0 0 0 0
0 0 0 0 0 0 0 0 0 0 0 0 0 0 0 0 1 0 0 -0 0 0 0 0 0 0 0 0 -0 -0 -0 -0 -0 -0 -0 -0 -0 -0 -0 0 0 0 0 0 0 0 0 0 0
0 0 0 0 0 0 0 0 0 0 0 0 0 0 0 0 0 0 0 0 0 0 0 0 0 0 0 0 0 0 -0 -0 -0 -0 -0 -0 -0 -0 0 0 0 0 0 0 0 0 0 0 0
0 0 0 0 0 0 0 0 0 0 0 0 0 0 0 0 0 0 1 0 0 0 0 0 0 0 0 0 0 0 -0 -0 -0 -0 0 0 0 0 0 0 0 0 0 0 0 0 0 0 0
0 0 0 0 0 0 0 0 0 0 0 0 0 0 0 0 0 0 0 0 0 0 0 0 0 0 0 0 0 0 0 0 0 0 0 0 0 0 0 0 0 0 0 0 0 0 0 0 -0
0 0 0 0 0 0 0 0 0 0 0 0 0 0 0 0 0 0 0 0 0 0 1 0 1 0 0 0 0 0 0 0 0 0 0 0 0 0 0 0 0 0 0 0 0 0 0 0 0
0 0 0 0 0 0 0 0 0 0 0 0 0 0 0 0 0 0 0 0 0 0 0 0 0 0 0 0 0 0 0 0 0 0 0 0 0 0 0 0 0 0 0 0 0 0 0 0 0
0 0 0 0 0 0 0 0 0 0 0 0 0 0 0 0 0 0 0 0 0 1 1 1 1 1 0 1 0 0 0 0 0 0 0 0 0 0 0 0 0 0 0 0 0 0 0 0 0
0 0 0 0 0 0 0 0 0 0 0 0 0 0 0 0 0 0 0 0 0 1 1 1 4 3 1 1 0 0 0 0 0 0 0 0 0 0 0 0 0 0 0 0 0 0 0 0 0
0 0 0 0 0 0 0 0 0 0 0 0 0 0 0 0 0 0 0 0 0 1 2 5 7 5 4 2 1 1 0 0 0 0 0 0 0 0 0 0 0 0 0 1 1 1 0 0 1
0 0 0 0 -0 -0 0 0 0 0 0 0 0 0 0 0 0 0 0 0 0 1 2 5 5 5 4 1 2 0 1 0 0 0 0 0 0 0 0 0 0 0 0 1 0 2 2 2 2
0 0 0 0 0 -0 -0 0 0 0 0 0 0 0 0 0 0 0 0 0 0 1 2 4 5 3 2 2 2 1 2 0 0 0 0 0 0 0 0 0 0 1 0 2 4 3 2 3 1
0 0 0 0 0 0 -0 0 0 0 0 0 0 0 0 0 0 0 0 0 0 1 3 6 6 3 2 3 3 1 1 1 0 0 1 0 0 0 0 0 3 4 4 1 1 3 4 1 0
-0 0 0 0 0 0 0 0 0 0 0 0 0 0 0 0 0 0 0 0 0 1 3 6 5 4 3 4 1 1 1 1 1 1 1 1 1 1 1 0 2 3 2 0 1 1 0 0 0
-0 -0 -0 0 0 0 0 0 0 0 0 0 0 0 0 0 0 0 0 0 0 4 7 5 5 5 4 2 2 1 1 1 1 2 1 1 1 1 1 1 3 2 1 0 0 0 0 0 0
-0 -0 -0 -0 0 0 0 0 0 0 0 0 0 0 0 0 0 0 0 0 0 3 7 8 8 6 4 3 3 3 3 2 1 2 1 1 1 1 2 2 2 1 0 0 0 0 0 0 0
-0 -0 -0 0 0 0 0 -0 0 0 0 0 0 0 0 0 0 0 0 0 0 5 5 5 8 6 4 3 2 3 2 1 1 2 2 2 2 1 1 1 0 0 0 0 0 0 -0 -0 0
-0 -0 -0 -0 0 0 0 0 0 0 0 0 0 0 0 0 0 0 0 0 2 5 7 5 6 6 3 2 1 1 2 4 2 2 1 1 1 1 0 0 0 0 0 0 0 0 -0 -0 -0
0 0 0 0 0 0 -0 0 0 0 0 0 0 0 0 0 0 0 0 0 3 2 5 5 6 4 4 5 3 4 3 2 2 1 1 1 1 1 1 0 0 0 0 0 0 -0 0 0 0
0 0 0 0 0 -0 -0 -0 0 0 0 0 0 0 0 0 0 0 0 2 2 2 4 7 6 5 4 5 3 2 2 1 1 2 2 1 1 0 0 0 0 0 0 0 0 0 0 0 0
0 0 0 0 0 0 0 -0 0 0 0 0 0 0 0 0 0 0 0 1 3 2 4 5 4 5 4 3 2 1 1 2 2 3 1 1 0 0 0 0 0 0 0 0 0 0 0 0 0
0 0 -0 -0 0 -0 0 0 -0 0 0 0 0 0 0 0 0 0 0 0 3 3 3 5 6 4 4 3 2 1 3 3 2 1 1 0 0 0 0 0 0 0 0 0 0 0 0 0 0
-0 0 0 0 0 -0 -0 -0 0 0 0 0 0 0 0 0 0 0 0 3 7 2 3 5 4 4 3 2 2 3 3 2 1 0 0 0 0 0 0 0 0 0 0 0 0 0 0 0 0
0 0 0 0 -0 -0 0 0 0 0 0 0 0 0 0 0 0 0 1 2 8 4 3 5 6 5 3 3 3 3 2 1 0 0 0 0 0 0 0 0 0 0 0 0 0 0 0 0 0
0 0 -0 0 0 -0 -0 -0 0 0 0 0 0 0 0 0 0 0 1 5 1 4 3 6 5 6 5 4 3 1 1 0 0 0 0 0 0 0 0 0 0 0 0 0 0 0 0 0 0
Wind_Speed_500mb
21 14 11 19 16 17 39 45 41 40 21 22 17 10 12 20 7 8 16 15 28 39 52 57 52 47 42 39 38 36 36 36 33 29 24 22 22 26 29 29 28 25 24 23 21 18 14 10 6
15 19 23 23 20 33 35 45 45 37 20 3 11 17 22 18 16 21 20 19 41 42 51 57 53 47 43 41 39 35 35 34 32 29 24 22 23 26 30 30 28 23 21 21 19 16 13 10 8
27 27 30 13 34 41 40 45 39 37 31 12 23 23 16 6 11 10 21 32 41 34 53 59 53 47 44 42 41 37 33 32 29 27 25 25 25 28 31 31 28 23 19 18 16 12 10 9 9
20 26 28 29 48 52 58 48 45 17 26 30 28 19 7 6 4 6 21 29 37 38 47 53 53 48 46 44 42 38 32 28 28 27 26 27 27 29 30 30 25 20 16 15 14 12 9 8 8
33 32 25 38 54 56 46 51 63 21 25 41 36 32 15 13 11 10 19 28 39 39 45 51 54 50 49 45 41 37 33 26 27 25 26 28 27 29 31 29 23 19 15 13 13 11 9 9 10
32 43 34 42 55 51 52 66 41 49 31 41 43 41 20 19 8 10 21 31 36 40 44 51 55 51 50 46 41 36 30 24 25 23 24 27 28 30 31 28 22 17 14 12 11 11 13 13 14
38 31 44 52 51 50 47 58 54 38 48 46 39 28 34 17 14 13 19 32 37 41 43 49 58 55 52 47 41 37 31 26 23 23 23 25 27 28 27 24 20 17 15 15 16 17 18 17 18
50 32 56 50 46 56 47 49 58 56 52 51 35 27 28 33 17 16 20 28 37 41 39 46 55 58 56 49 45 37 32 27 23 23 23 25 26 26 26 23 20 19 18 18 18 19 20 20 20
39 34 44 57 57 42 53 50 40 49 39 58 55 41 29 19 17 17 23 30 39 40 40 43 48 54 48 45 49 42 36 30 25 23 24 26 25 27 24 21 22 19 18 17 18 19 19 19 17
41 36 57 48 46 43 58 53 43 36 46 50 60 59 53 23 21 25 28 34 41 44 45 44 47 48 48 39 46 46 41 35 30 27 27 25 21 20 15 23 19 18 18 17 16 16 16 14 7
50 48 50 54 53 60 58 49 50 39 47 54 47 64 65 55 36 39 34 37 42 44 46 46 48 48 46 41 43 43 39 33 30 28 28 24 21 20 19 14 18 17 15 13 14 15 11 9 13
44 57 59 57 63 62 49 55 51 47 51 38 49 56 53 54 52 45 44 40 42 48 48 48 49 48 50 41 36 35 33 32 28 27 29 27 24 23 22 14 10 10 15 7 15 11 14 15 14
37 42 57 63 58 63 67 51 56 61 58 48 39 35 49 58 55 43 43 42 42 47 50 51 50 49 50 43 36 36 32 31 28 28 28 25 22 22 21 18 15 11 10 14 12 13 15 12 13
42 46 47 47 58 66 49 53 62 66 57 49 57 49 41 52 52 45 39 39 42 47 51 52 55 56 52 44 39 37 34 31 29 26 26 26 20 22 18 18 15 15 14 10 11 12 11 14 14
35 39 42 45 49 50 61 60 69 67 65 64 56 52 58 53 50 52 46 40 44 46 51 56 61 62 61 49 44 37 33 29 27 23 25 25 23 25 21 14 13 13 13 17 13 14 14 13 19
39 41 40 42 48 54 54 70 64 74 69 73 68 61 70 64 63 60 54 42 44 47 51 59 69 68 64 53 45 36 32 29 26 22 20 24 22 16 18 12 13 14 14 12 13 20 18 16 14
33 37 48 44 40 42 58 72 52 73 73 76 77 69 63 68 72 66 57 52 39 47 51 58 71 65 65 56 43 36 36 30 26 23 19 23 19 17 16 12 10 16 10 20 29 21 19 13 13
37 35 37 34 20 38 56 63 42 64 73 75 64 80 77 71 70 68 59 57 49 46 51 65 68 64 64 56 46 37 30 29 26 23 21 21 19 19 23 15 18 26 33 39 37 28 11 4 20
42 47 49 50 39 34 51 48 49 49 70 50 79 54 70 77 69 60 61 58 58 49 56 67 62 62 70 61 47 44 34 34 29 26 29 23 21 21 20 23 24 41 37 39 41 40 37 5 19
46 48 50 47 45 41 43 52 57 46 57 69 57 65 61 67 75 74 72 65 61 58 63 70 62 73 72 59 50 43 38 34 31 28 26 24 22 21 22 25 37 39 38 42 45 48 43 40 43
38 41 47 48 51 45 40 49 51 55 54 68 64 48 55 56 64 69 71 69 63 60 70 72 69 76 78 59 54 51 44 40 34 29 26 22 19 16 22 27 30 26 14 26 38 33 27 15 13
43 43 44 48 42 33 41 39 49 52 50 50 59 63 62 60 58 60 71 58 65 62 65 69 79 76 72 64 57 59 54 45 35 40 35 21 16 12 19 28 18 11 14 11 5 5 7 15 20
41 41 41 34 44 40 50 30 38 53 57 53 51 67 70 67 63 64 67 67 65 61 76 68 76 77 74 61 55 56 49 55 48 36 25 16 15 21 19 5 9 10 11 0 7 7 5 20 19
30 32 39 40 30 34 48 42 38 45 61 62 58 82 82 77 69 66 64 67 60 63 75 74 80 73 79 71 64 58 58 55 46 35 30 22 14 12 13 13 15 10 13 13 7 8 8 17 24
34 27 14 14 20 33 38 43 42 50 56 59 59 74 80 83 70 70 66 69 66 66 76 84 82 78 68 64 64 58 47 43 36 32 30 27 23 21 17 14 7 5 9 1 10 15 18 19 21
31 31 20 22 19 21 33 39 40 55 53 45 44 62 77 81 71 70 69 70 75 73 82 76 75 72 68 64 62 57 52 46 41 35 36 36 29 29 23 20 14 9 1 6 12 16 15 24 26
23 35 37 43 44 33 29 25 51 42 57 47 42 39 72 73 75 71 70 74 79 85 75 83 77 80 77 65 60 60 52 48 46 48 43 35 28 31 26 23 10 4 3 8 14 18 22 22 22
36 9 12 20 18 34 30 29 27 39 55 28 34 23 34 75 75 72 71 76 93 86 77 77 82 87 77 68 61 56 56 57 46 39 36 36 31 25 26 17 9 2 6 8 13 17 20 20 21
16 15 19 23 27 25 15 17 29 23 51 47 33 38 39 67 72 75 72 75 104 83 82 80 81 83 74 65 64 63 60 51 44 41 37 28 29 27 17 10 5 3 8 14 16 18 17 19 17
39 33 31 19 24 25 29 12 33 43 39 45 41 52 54 53 77 76 71 60 42 82 80 83 86 90 77 71 79 71 61 49 46 40 31 33 30 22 15 12 10 9 11 13 14 14 16 17 18
Wind_Direction_500mb
222 224 210 232 242 229 249 243 247 256 216 255 275 258 301 351 314 58 135 163 153 166 174 173 171 173 175 175 174 172 172 176 175 172 168 159 152 151 152 152 149 148 152 161 169 172 180 187 187
204 213 212 247 238 244 242 237 248 239 237 188 253 239 261 249 35 121 142 150 154 171 177 179 175 176 177 176 175 170 172 175 177 177 176 170 163 161 161 160 158 156 155 159 166 173 184 202 213
173 205 224 221 233 240 247 247 224 249 212 203 246 230 314 12 71 80 117 152 161 184 179 184 180 179 179 179 177 171 172 176 177 181 182 180 173 169 169 168 168 167 163 168 177 190 207 220 226
192 208 246 251 240 229 246 260 260 292 189 216 238 242 214 70 81 98 150 161 173 170 172 187 185 184 181 181 180 175 173 176 182 183 186 186 181 176 177 177 176 176 177 184 191 198 213 231 245
211 233 232 233 240 247 249 236 255 240 255 243 220 233 189 114 113 146 173 174 180 175 173 186 185 185 184 183 182 179 177 177 187 187 188 190 186 183 182 182 183 184 188 197 205 222 244 260 263
214 229 242 235 244 238 242 253 241 257 222 246 245 223 229 130 124 152 162 171 180 175 177 189 183 187 186 186 185 181 179 180 190 192 194 193 190 188 185 185 189 192 201 207 219 233 243 246 252
232 224 239 248 258 243 236 231 248 232 254 237 243 247 229 167 148 169 163 169 176 175 181 184 183 185 188 190 188 185 181 183 191 193 197 194 192 189 188 191 197 206 218 228 238 245 249 253 256
239 252 255 243 251 258 254 234 231 242 232 245 243 221 238 128 146 163 162 171 176 179 180 177 182 186 188 191 191 188 186 187 191 193 190 192 189 190 194 200 208 220 229 236 241 246 254 259 264
234 249 244 244 250 250 260 261 233 237 248 247 240 233 222 136 151 164 170 175 176 181 181 179 180 183 182 189 192 190 188 189 191 189 189 186 187 190 201 206 220 231 234 238 247 255 264 270 272
232 242 246 258 258 257 259 258 248 234 227 236 245 233 219 177 200 197 187 184 186 186 185 184 183 181 176 184 192 190 191 189 190 191 186 179 183 185 202 234 229 233 240 246 255 264 270 282 313
238 245 261 263 263 274 280 274 242 235 250 226 233 229 233 234 215 216 205 199 197 193 188 189 186 183 179 183 193 181 190 187 187 185 189 169 191 193 188 231 240 240 247 256 288 279 313 301 271
253 253 258 265 269 279 278 272 263 255 246 237 237 236 230 215 218 217 217 210 201 195 193 190 186 184 179 185 183 180 181 188 182 186 185 182 186 206 191 207 220 221 257 220 243 255 247 254 271
254 257 262 261 259 265 269 264 259 259 256 248 252 231 234 231 216 218 218 217 207 198 193 191 187 185 182 185 181 180 183 184 183 191 190 194 181 205 196 206 196 231 221 255 240 253 263 273 285
278 280 267 265 260 251 253 258 261 256 257 251 244 249 234 234 212 212 214 217 211 202 194 191 193 190 183 184 181 181 181 186 181 190 197 189 180 216 199 203 207 220 220 226 249 259 262 280 280
268 267 263 256 258 259 253 252 247 249 251 245 243 242 242 235 230 226 220 218 212 202 195 194 197 194 187 182 182 181 185 181 183 189 195 184 177 227 181 202 211 231 234 228 239 256 269 275 269
260 262 264 254 237 242 238 250 244 245 246 245 243 236 236 238 236 227 225 223 212 205 196 196 204 204 190 180 185 180 185 179 181 185 193 182 190 206 182 207 224 226 222 247 256 257 259 276 309
242 255 254 254 243 246 226 247 247 249 239 233 236 233 238 232 232 229 226 217 212 204 197 195 209 204 188 182 182 177 193 174 177 178 183 181 184 193 174 192 230 215 226 236 237 244 257 286 289
271 248 264 266 252 253 242 248 241 244 235 252 232 225 232 236 229 222 213 213 212 206 200 199 206 200 185 183 179 177 181 172 173 172 174 199 176 187 185 195 206 227 218 229 232 219 183 317 322
275 280 283 287 286 275 280 265 242 246 245 243 228 229 226 225 230 218 213 208 211 208 194 201 202 193 178 182 177 177 178 172 169 167 183 167 179 201 217 208 224 233 234 239 243 245 240 281 338
275 269 267 274 276 266 261 269 262 243 230 237 235 224 228 222 223 223 219 212 204 200 190 199 200 184 180 171 176 175 169 169 168 171 165 175 208 226 232 217 233 253 252 254 262 271 270 247 266
266 276 280 279 278 272 265 261 265 249 242 226 233 228 232 230 214 217 213 207 204 191 193 195 190 184 179 173 171 165 164 162 161 169 169 193 207 213 233 261 244 256 252 267 270 271 265 294 332
264 269 267 262 272 260 248 256 235 243 232 233 229 226 231 232 222 211 206 197 199 188 185 193 182 188 180 173 167 165 163 159 165 163 179 180 203 245 243 233 267 274 219 234 254 78 43 339 340
272 282 268 256 256 266 252 256 263 226 231 225 218 228 228 229 221 215 198 201 187 188 190 186 186 180 179 168 170 160 165 171 175 179 160 175 188 221 246 158 157 223 211 102 113 128 351 326 327
264 266 257 249 261 257 249 250 242 248 224 218 220 219 220 224 216 211 197 196 182 190 184 180 185 178 179 161 165 175 174 175 170 159 143 134 175 164 132 145 124 109 138 149 179 277 314 317 320
240 246 245 239 232 251 243 239 249 251 220 217 221 207 208 216 208 204 194 182 187 183 178 174 178 167 163 161 169 175 173 159 145 139 130 147 167 160 151 150 191 192 199 280 325 315 330 330 329
237 237 235 267 252 270 252 227 238 245 251 215 225 206 201 207 198 193 190 184 180 176 170 166 164 158 162 166 164 168 153 147 133 133 141 166 161 151 164 186 157 168 263 310 328 318 322 336 331
246 243 257 270 288 275 254 213 254 235 240 221 210 205 194 194 191 186 182 186 175 165 162 162 161 156 165 163 157 152 143 130 149 163 171 171 150 149 154 159 155 147 247 297 315 319 326 332 346
245 251 260 244 268 268 266 237 233 224 222 221 176 196 208 184 184 185 177 175 154 165 162 159 160 155 158 154 148 139 135 160 167 159 152 149 150 158 162 171 162 206 300 339 340 350 352 3 11
221 247 232 268 257 271 271 289 343 262 210 199 196 203 217 187 180 181 171 179 162 155 159 161 156 150 148 145 140 141 156 159 149 152 150 152 154 152 150 151 163 61 6 1 0 14 22 27 19
258 246 252 227 240 264 295 273 276 293 218 201 204 191 204 204 183 170 167 155 136 146 154 156 151 150 143 143 153 158 159 145 146 147 148 146 145 148 151 105 82 45 19 20 38 38 31 22 15
Wind_Speed_850mb
21 14 11 19 16 17 39 45 41 40 21 22 17 10 12 20 7 8 16 15 28 39 52 57 52 47 42 39 38 36 36 36 33 29 24 22 22 26 29 29 28 25 24 23 21 18 14 10 6
15 19 23 23 20 33 35 45 45 37 20 3 11 17 22 18 16 21 20 19 41 42 51 57 53 47 43 41 39 35 35 34 32 29 24 22 23 26 30 30 28 23 21 21 19 16 13 10 8
27 27 30 13 34 41 40 45 39 37 31 12 23 23 16 6 11 10 21 32 41 34 53 59 53 47 44 42 41 37 33 32 29 27 25 25 25 28 31 31 28 23 19 18 16 12 10 9 9
20 26 28 29 48 52 58 48 45 17 26 30 28 19 7 6 4 6 21 29 37 38 47 53 53 48 46 44 42 38 32 28 28 27 26 27 27 29 30 30 25 20 16 15 14 12 9 8 8
33 32 25 38 54 56 46 51 63 21 25 41 36 32 15 13 11 10 19 28 39 39 45 51 54 50 49 45 41 37 33 26 27 25 26 28 27 29 31 29 23 19 15 13 13 11 9 9 10
32 43 34 42 55 51 52 66 41 49 31 41 43 41 20 19 8 10 21 31 36 40 44 51 55 51 50 46 41 36 30 24 25 23 24 27 28 30 31 28 22 17 14 12 11 11 13 13 14
38 31 44 52 51 50 47 58 54 38 48 46 39 28 34 17 14 13 19 32 37 41 43 49 58 55 52 47 41 37 31 26 23 23 23 25 27 28 27 24 20 17 15 15 16 17 18 17 18
50 32 56 50 46 56 47 49 58 56 52 51 35 27 28 33 17 16 20 28 37 41 39 46 55 58 56 49 45 37 32 27 23 23 23 25 26 26 26 23 20 19 18 18 18 19 20 20 20
39 34 44 57 57 42 53 50 40 49 39 58 55 41 29 19 17 17 23 30 39 40 40 43 48 54 48 45 49 42 36 30 25 23 24 26 25 27 24 21 22 19 18 17 18 19 19 19 17
41 36 57 48 46 43 58 53 43 36 46 50 60 59 53 23 21 25 28 34 41 44 45 44 47 48 48 39 46 46 41 35 30 27 27 25 21 20 15 23 19 18 18 17 16 16 16 14 7
50 48 50 54 53 60 58 49 50 39 47 54 47 64 65 55 36 39 34 37 42 44 46 46 48 48 46 41 43 43 39 33 30 28 28 24 21 20 19 14 18 17 15 13 14 15 11 9 13
44 57 59 57 63 62 49 55 51 47 51 38 49 56 53 54 52 45 44 40 42 48 48 48 49 48 50 41 36 35 33 32 28 27 29 27 24 23 22 14 10 10 15 7 15 11 14 15 14
37 42 57 63 58 63 67 51 56 61 58 48 39 35 49 58 55 43 43 42 42 47 50 51 50 49 50 43 36 36 32 31 28 28 28 25 22 22 21 18 15 11 10 14 12 13 15 12 13
42 46 47 47 58 66 49 53 62 66 57 49 57 49 41 52 52 45 39 39 42 47 51 52 55 56 52 44 39 37 34 31 29 26 26 26 20 22 18 18 15 15 14 10 11 12 11 14 14
35 39 42 45 49 50 61 60 69 67 65 64 56 52 58 53 50 52 46 40 44 46 51 56 61 62 61 49 44 37 33 29 27 23 25 25 23 25 21 14 13 13 13 17 13 14 14 13 19
39 41 40 42 48 54 54 70 64 74 69 73 68 61 70 64 63 60 54 42 44 47 51 59 69 68 64 53 45 36 32 29 26 22 20 24 22 16 18 12 13 14 14 12 13 20 18 16 14
33 37 48 44 40 42 58 72 52 73 73 76 77 69 63 68 72 66 57 52 39 47 51 58 71 65 65 56 43 36 36 30 26 23 19 23 19 17 16 12 10 16 10 20 29 21 19 13 13
37 35 37 34 20 38 56 63 42 64 73 75 64 80 77 71 70 68 59 57 49 46 51 65 68 64 64 56 46 37 30 29 26 23 21 21 19 19 23 15 18 26 33 39 37 28 11 4 20
42 47 49 50 39 34 51 48 49 49 70 50 79 54 70 77 69 60 61 58 58 49 56 67 62 62 70 61 47 44 34 34 29 26 29 23 21 21 20 23 24 41 37 39 41 40 37 5 19
46 48 50 47 45 41 43 52 57 46 57 69 57 65 61 67 75 74 72 65 61 58 63 70 62 73 72 59 50 43 38 34 31 28 26 24 22 21 22 25 37 39 38 42 45 48 43 40 43
38 41 47 48 51 45 40 49 51 55 54 68 64 48 55 56 64 69 71 69 63 60 70 72 69 76 78 59 54 51 44 40 34 29 26 22 19 16 22 27 30 26 14 26 38 33 27 15 13
43 43 44 48 42 33 41 39 49 52 50 50 59 63 62 60 58 60 71 58 65 62 65 69 79 76 72 64 57 59 54 45 35 40 35 21 16 12 19 28 18 11 14 11 5 5 7 15 20
41 41 41 34 44 40 50 30 38 53 57 53 51 67 70 67 63 64 67 67 65 61 76 68 76 77 74 61 55 56 49 55 48 36 25 16 15 21 19 5 9 10 11 0 7 7 5 20 19
30 32 39 40 30 34 48 42 38 45 61 62 58 82 82 77 69 66 64 67 60 63 75 74 80 73 79 71 64 58 58 55 46 35 30 22 14 12 13 13 15 10 13 13 7 8 8 17 24
34 27 14 14 20 33 38 43 42 50 56 59 59 74 80 83 70 70 66 69 66 66 76 84 82 78 68 64 64 58 47 43 36 32 30 27 23 21 17 14 7 5 9 1 10 15 18 19 21
31 31 20 22 19 21 33 39 40 55 53 45 44 62 77 81 71 70 69 70 75 73 82 76 75 72 68 64 62 57 52 46 41 35 36 36 29 29 23 20 14 9 1 6 12 16 15 24 26
23 35 37 43 44 33 29 25 51 42 57 47 42 39 72 73 75 71 70 74 79 85 75 83 77 80 77 65 60 60 52 48 46 48 43 35 28 31 26 23 10 4 3 8 14 18 22 22 22
36 9 12 20 18 34 30 29 27 39 55 28 34 23 34 75 75 72 71 76 93 86 77 77 82 87 77 68 61 56 56 57 46 39 36 36 31 25 26 17 9 2 6 8 13 17 20 20 21
16 15 19 23 27 25 15 17 29 23 51 47 33 38 39 67 72 75 72 75 104 83 82 80 81 83 74 65 64 63 60 51 44 41 37 28 29 27 17 10 5 3 8 14 16 18 17 19 17
39 33 31 19 24 25 29 12 33 43 39 45 41 52 54 53 77 76 71 60 42 82 80 83 86 90 77 71 79 71 61 49 46 40 31 33 30 22 15 12 10 9 11 13 14 14 16 17 18
Wind_Direction_850mb
222 224 210 232 242 229 249 243 247 256 216 255 275 258 301 351 314 58 135 163 153 166 174 173 171 173 175 175 174 172 172 176 175 172 168 159 152 151 152 152 149 148 152 161 169 172 180 187 187
204 213 212 247 238 244 242 237 248 239 237 188 253 239 261 249 35 121 142 150 154 171 177 179 175 176 177 176 175 170 172 175 177 177 176 170 163 161 161 160 158 156 155 159 166 173 184 202 213
173 205 224 221 233 240 247 247 224 249 212 203 246 230 314 12 71 80 117 152 161 184 179 184 180 179 179 179 177 171 172 176 177 181 182 180 173 169 169 168 168 167 163 168 177 190 207 220 226
192 208 246 251 240 229 246 260 260 292 189 216 238 242 214 70 81 98 150 161 173 170 172 187 185 184 181 181 180 175 173 176 182 183 186 186 181 176 177 177 176 176 177 184 191 198 213 231 245
211 233 232 233 240 247 249 236 255 240 255 243 220 233 189 114 113 146 173 174 180 175 173 186 185 185 184 183 182 179 177 177 187 187 188 190 186 183 182 182 183 184 188 197 205 222 244 260 263
214 229 242 235 244 238 242 253 241 257 222 246 245 223 229 130 124 152 162 171 180 175 177 189 183 187 186 186 185 181 179 180 190 192 194 193 190 188 185 185 189 192 201 207 219 233 243 246 252
232 224 239 248 258 243 236 231 248 232 254 237 243 247 229 167 148 169 163 169 176 175 181 184 183 185 188 190 188 185 181 183 191 193 197 194 192 189 188 191 197 206 218 228 238 245 249 253 256
239 252 255 243 251 258 254 234 231 242 232 245 243 221 238 128 146 163 162 171 176 179 180 177 182 186 188 191 191 188 186 187 191 193 190 192 189 190 194 200 208 220 229 236 241 246 254 259 264
234 249 244 244 250 250 260 261 233 237 248 247 240 233 222 136 151 164 170 175 176 181 181 179 180 183 182 189 192 190 188 189 191 189 189 186 187 190 201 206 220 231 234 238 247 255 264 270 272
232 242 246 258 258 257 259 258 248 234 227 236 245 233 219 177 200 197 187 184 186 186 185 184 183 181 176 184 192 190 191 189 190 191 186 179 183 185 202 234 229 233 240 246 255 264 270 282 313
238 245 261 263 263 274 280 274 242 235 250 226 233 229 233 234 215 216 205 199 197 193 188 189 186 183 179 183 193 181 190 187 187 185 189 169 191 193 188 231 240 240 247 256 288 279 313 301 271
253 253 258 265 269 279 278 272 263 255 246 237 237 236 230 215 218 217 217 210 201 195 193 190 186 184 179 185 183 180 181 188 182 186 185 182 186 206 191 207 220 221 257 220 243 255 247 254 271
254 257 262 261 259 265 269 264 259 259 256 248 252 231 234 231 216 218 218 217 207 198 193 191 187 185 182 185 181 180 183 184 183 191 190 194 181 205 196 206 196 231 221 255 240 253 263 273 285
278 280 267 265 260 251 253 258 261 256 257 251 244 249 234 234 212 212 214 217 211 202 194 191 193 190 183 184 181 181 181 186 181 190 197 189 180 216 199 203 207 220 220 226 249 259 262 280 280
268 267 263 256 258 259 253 252 247 249 251 245 243 242 242 235 230 226 220 218 212 202 195 194 197 194 187 182 182 181 185 181 183 189 195 184 177 227 181 202 211 231 234 228 239 256 269 275 269
260 262 264 254 237 242 238 250 244 245 246 245 243 236 236 238 236 227 225 223 212 205 196 196 204 204 190 180 185 180 185 179 181 185 193 182 190 206 182 207 224 226 222 247 256 257 259 276 309
242 255 254 254 243 246 226 247 247 249 239 233 236 233 238 232 232 229 226 217 212 204 197 195 209 204 188 182 182 177 193 174 177 178 183 181 184 193 174 192 230 215 226 236 237 244 257 286 289
271 248 264 266 252 253 242 248 241 244 235 252 232 225 232 236 229 222 213 213 212 206 200 199 206 200 185 183 179 177 181 172 173 172 174 199 176 187 185 195 206 227 218 229 232 219 183 317 322
275 280 283 287 286 275 280 265 242 246 245 243 228 229 226 225 230 218 213 208 211 208 194 201 202 193 178 182 177 177 178 172 169 167 183 167 179 201 217 208 224 233 234 239 243 245 240 281 338
275 269 267 274 276 266 261 269 262 243 230 237 235 224 228 222 223 223 219 212 204 200 190 199 200 184 180 171 176 175 169 169 168 171 165 175 208 226 232 217 233 253 252 254 262 271 270 247 266
266 276 280 279 278 272 265 261 265 249 242 226 233 228 232 230 214 217 213 207 204 191 193 195 190 184 179 173 171 165 164 162 161 169 169 193 207 213 233 261 244 256 252 267 270 271 265 294 332
264 269 267 262 272 260 248 256 235 243 232 233 229 226 231 232 222 211 206 197 199 188 185 193 182 188 180 173 167 165 163 159 165 163 179 180 203 245 243 233 267 274 219 234 254 78 43 339 340
272 282 268 256 256 266 252 256 263 226 231 225 218 228 228 229 221 215 198 201 187 188 190 186 186 180 179 168 170 160 165 171 175 179 160 175 188 221 246 158 157 223 211 102 113 128 351 326 327
264 266 257 249 261 257 249 250 242 248 224 218 220 219 220 224 216 211 197 196 182 190 184 180 185 178 179 161 165 175 174 175 170 159 143 134 175 164 132 145 124 109 138 149 179 277 314 317 320
240 246 245 239 232 251 243 239 249 251 220 217 221 207 208 216 208 204 194 182 187 183 178 174 178 167 163 161 169 175 173 159 145 139 130 147 167 160 151 150 191 192 199 280 325 315 330 330 329
237 237 235 267 252 270 252 227 238 245 251 215 225 206 201 207 198 193 190 184 180 176 170 166 164 158 162 166 164 168 153 147 133 133 141 166 161 151 164 186 157 168 263 310 328 318 322 336 331
246 243 257 270 288 275 254 213 254 235 240 221 210 205 194 194 191 186 182 186 175 165 162 162 161 156 165 163 157 152 143 130 149 163 171 171 150 149 154 159 155 147 247 297 315 319 326 332 346
245 251 260 244 268 268 266 237 233 224 222 221 176 196 208 184 184 185 177 175 154 165 162 159 160 155 158 154 148 139 135 160 167 159 152 149 150 158 162 171 162 206 300 339 340 350 352 3 11
221 247 232 268 257 271 271 289 343 262 210 199 196 203 217 187 180 181 171 179 162 155 159 161 156 150 148 145 140 141 156 159 149 152 150 152 154 152 150 151 163 61 6 1 0 14 22 27 19
258 246 252 227 240 264 295 273 276 293 218 201 204 191 204 204 183 170 167 155 136 146 154 156 151 150 143 143 153 158 159 145 146 147 148 146 145 148 151 105 82 45 19 20 38 38 31 22 15